This is the latest recevied weather packets stored in our database for station/object N1TKS. If no packets are shown the sender has not sent any weather packets the latest 10 day(s).
| Time | Temp. | Humidity | Pressure | Rain* | Wind** | Luminosity | Snow |
|---|---|---|---|---|---|---|---|
| 1778011613 | 22.78° C | 59% | 1008.4 hPa | 0 mm | - | - | - |
| 1778011322 | 22.78° C | 59% | 1008.6 hPa | 0 mm | - | - | - |
| 1778011050 | 22.78° C | 58% | 1008.7 hPa | 0 mm | - | - | - |
| 1778011018 | 22.78° C | 58% | 1008.7 hPa | 0 mm | - | - | - |
| 1778010416 | 22.22° C | 60% | 1008.8 hPa | 0 mm | - | - | - |
| 1778010410 | 22.22° C | 59% | 1009 hPa | 0 mm | - | - | - |
| 1778009815 | 22.22° C | 59% | 1009 hPa | 0 mm | - | - | - |
| 1778008314 | 22.78° C | 59% | 1009.2 hPa | 0 mm | - | - | - |
| 1778008016 | 22.78° C | 59% | 1009.4 hPa | 0 mm | - | - | - |
| 1778007114 | 22.78° C | 57% | 1009.5 hPa | 0 mm | - | - | - |
| 1778006514 | 23.33° C | 57% | 1009.6 hPa | 0 mm | - | - | - |
| 1778006215 | 23.33° C | 57% | 1009.7 hPa | 0 mm | - | - | - |
| 1778005614 | 23.33° C | 57% | 1009.7 hPa | 0 mm | - | - | - |
| 1778005444 | 23.33° C | 56% | 1009.7 hPa | 0 mm | - | - | - |
| 1778005386 | 23.33° C | 56% | 1009.7 hPa | 0 mm | - | - | - |
| 1778005314 | 23.33° C | 56% | 1009.7 hPa | 0 mm | - | - | - |
| 1778005015 | 23.33° C | 56% | 1009.6 hPa | 0 mm | - | - | - |
| 1778003817 | 23.89° C | 54% | 1009.7 hPa | 0 mm | - | - | - |
| 1778002913 | 24.44° C | 54% | 1009.8 hPa | 0 mm | - | - | - |
| 1778002614 | 23.89° C | 55% | 1009.8 hPa | 0 mm | - | - | - |
| 1778002315 | 23.89° C | 54% | 1009.8 hPa | 0 mm | - | - | - |
| 1778002014 | 23.89° C | 53% | 1009.9 hPa | 0 mm | - | - | - |
| 1778001774 | 24.44° C | 53% | 1009.9 hPa | 0 mm | - | - | - |
| 1778001732 | 24.44° C | 53% | 1009.9 hPa | 0 mm | - | - | - |
| 1778001115 | 24.44° C | 54% | 1010 hPa | 0 mm | - | - | - |
* Rain latest hour (hover to see other rain measurements)
** Current wind speed in m/s (hover to see current wind gust speed)